Weather History for Pecos, TX

Change the Weather History Date:

Wednesday, November 3, 2010

  Actual Average Record
Temperature  
Mean Temperature 59 °F -  
Max Temperature 78 °F 72 °F 92 °F (1973)
Min Temperature 40 °F 39 °F 24 °F (1936)
Degree Days  
Heating Degree Days 6    
Growing Degree Days 9 (Base 50)    
Moisture  
Dew Point 30 °F    
Average Humidity 37    
Maximum Humidity 63    
Minimum Humidity 16    
Precipitation  
Precipitation 0.00 in - - ()
Sea Level Pressure  
Sea Level Pressure 30.29 in    
Wind  
Wind Speed 7 mph (NW)    
Max Wind Speed 18 mph    
Max Gust Speed 26 mph    
Visibility 10 miles    
Events      
Averages and records for this station are not official NWS values.
T = Trace of Precipitation, MM = Missing Value Source: NWS Daily Summary

Daily Weather History Graph

Daily Weather History Graph

Search for Another Location

Airport:

Trip Planner

Search our weather history database for the weather conditions in past years. The results will help you decide how hot, cold, wet, or windy it might be!

Date:

Astronomy

Nov. 03, 2010 Rise Set
Actual Time 8:11 AM CDT 7:03 PM CDT
Civil Twilight 7:46 AM CDT 7:28 PM CDT
Nautical Twilight 7:17 AM CDT 7:57 PM CDT
Astronomical Twilight 6:49 AM CDT 8:25 PM CDT
Moon 5:21 AM CDT (11/3) 5:08 PM CDT (11/3)
Length of Visible Light 11h 42m
Length of Day
10h 51m
Waning Crescent, 9% of the Moon is Illuminated
Nov 3
Waning Crescent
Nov 5
New
Nov 13
First Quarter
Nov 21
Full
Nov 28
Last Quarter

Hourly Weather History & Observations

Time (CDT) Temp. Windchill Dew Point Humidity Pressure Visibility Wind Dir Wind Speed Gust Speed Precip Events Conditions
12:05 AM 49.6 °F - 31.1 °F 49% 30.27 in 10.0 mi WNW 5.8 mph - N/A   Clear
12:25 AM 49.8 °F - 30.0 °F 47% 30.27 in 10.0 mi WNW 3.5 mph - N/A   Clear
12:45 AM 48.4 °F - 29.7 °F 48% 30.27 in 10.0 mi Calm Calm - N/A   Clear
1:05 AM 48.6 °F - 30.9 °F 51% 30.27 in 10.0 mi NW 3.5 mph - N/A   Clear
1:25 AM 47.3 °F - 29.7 °F 50% 30.27 in 10.0 mi WNW 5.8 mph - N/A   Clear
1:45 AM 46.4 °F 44.3 °F 29.5 °F 52% 30.27 in 10.0 mi WNW 4.6 mph - N/A   Clear
2:05 AM 47.3 °F - 29.7 °F 50% 30.27 in 10.0 mi WNW 4.6 mph - N/A   Clear
2:25 AM 46.6 °F - 29.5 °F 51% 30.27 in 10.0 mi WNW 3.5 mph - N/A   Clear
2:45 AM 45.0 °F 42.6 °F 29.5 °F 55% 30.27 in 10.0 mi West 4.6 mph - N/A   Clear
3:05 AM 43.3 °F 40.7 °F 28.0 °F 55% 30.27 in 10.0 mi West 4.6 mph - N/A   Clear
3:25 AM 43.2 °F 39.7 °F 28.4 °F 56% 30.27 in 10.0 mi West 5.8 mph - N/A   Clear
3:45 AM 42.8 °F 39.3 °F 28.4 °F 57% 30.26 in 10.0 mi West 5.8 mph - N/A   Clear
4:05 AM 42.4 °F 39.6 °F 28.6 °F 58% 30.26 in 10.0 mi WNW 4.6 mph - N/A   Clear
4:25 AM 43.7 °F 40.3 °F 29.7 °F 58% 30.26 in 10.0 mi WNW 5.8 mph - N/A   Clear
4:45 AM 44.1 °F 40.8 °F 30.0 °F 58% 30.26 in 10.0 mi WNW 5.8 mph - N/A   Clear
5:05 AM 44.2 °F 41.8 °F 30.0 °F 57% 30.26 in 10.0 mi WNW 4.6 mph - N/A   Clear
5:25 AM 41.4 °F - 28.4 °F 60% 30.26 in 10.0 mi Calm Calm - N/A   Clear
5:45 AM 40.1 °F 35.3 °F 28.2 °F 63% 30.27 in 10.0 mi WSW 6.9 mph - N/A   Clear
6:05 AM 41.2 °F 36.6 °F 28.0 °F 60% 30.27 in 10.0 mi WSW 6.9 mph - N/A   Clear
6:25 AM 41.2 °F 36.6 °F 28.0 °F 60% 30.27 in 10.0 mi West 6.9 mph - N/A   Clear
6:45 AM 42.1 °F 37.1 °F 28.8 °F 59% 30.27 in 10.0 mi West 8.1 mph - N/A   Clear
7:05 AM 43.2 °F 38.4 °F 29.3 °F 58% 30.28 in 10.0 mi West 8.1 mph - N/A   Clear
7:25 AM 43.5 °F 39.4 °F 29.3 °F 57% 30.28 in 10.0 mi West 6.9 mph - N/A   Clear
7:45 AM 43.5 °F 38.3 °F 29.3 °F 57% 30.29 in 10.0 mi West 9.2 mph - N/A   Clear
8:05 AM 44.1 °F 39.5 °F 30.0 °F 58% 30.29 in 10.0 mi West 8.1 mph - N/A   Clear
8:25 AM 43.3 °F 39.9 °F 30.2 °F 60% 30.30 in 10.0 mi WNW 5.8 mph - N/A   Clear
8:45 AM 45.5 °F 41.3 °F 31.1 °F 57% 30.31 in 10.0 mi WNW 8.1 mph - N/A   Clear
9:05 AM 49.3 °F - 31.5 °F 50% 30.32 in 10.0 mi NW 8.1 mph - N/A   Clear
9:25 AM 53.6 °F - 31.6 °F 43% 30.32 in 10.0 mi NW 9.2 mph - N/A   Clear
9:45 AM 56.1 °F - 31.1 °F 39% 30.33 in 10.0 mi NW 13.8 mph - N/A   Clear
10:05 AM 58.3 °F - 31.3 °F 36% 30.33 in 10.0 mi WNW 12.7 mph - N/A   Clear
10:45 AM 61.7 °F - 31.6 °F 32% 30.34 in 10.0 mi NW 11.5 mph - N/A   Clear
11:05 AM 64.4 °F - 32.0 °F 30% 30.34 in 10.0 mi NW 9.2 mph - N/A   Clear
11:25 AM 66.2 °F - 32.0 °F 28% 30.35 in 10.0 mi WNW 11.5 mph - N/A   Clear
11:45 AM 67.1 °F - 32.0 °F 27% 30.34 in 10.0 mi WNW 12.7 mph - N/A   Clear
12:05 PM 68.7 °F - 32.0 °F 26% 30.34 in 10.0 mi WNW 10.4 mph - N/A   Clear
12:25 PM 70.0 °F - 32.2 °F 25% 30.34 in 10.0 mi NW 9.2 mph - N/A   Clear
12:45 PM 71.1 °F - 32.2 °F 24% 30.33 in 10.0 mi WNW 6.9 mph - N/A   Clear
1:05 PM 71.6 °F - 32.2 °F 23% 30.33 in 10.0 mi WNW 3.5 mph - N/A   Clear
1:25 PM 73.2 °F - 32.0 °F 22% 30.32 in 10.0 mi NNW 6.9 mph - N/A   Clear
1:45 PM 74.5 °F - 32.0 °F 21% 30.31 in 10.0 mi NNW 6.9 mph - N/A   Clear
2:05 PM 75.4 °F - 32.0 °F 20% 30.30 in 10.0 mi NW 12.7 mph 19.6 mph N/A   Clear
2:25 PM 75.6 °F - 32.0 °F 20% 30.28 in 10.0 mi NW 12.7 mph - N/A   Clear
2:45 PM 77.0 °F - 30.9 °F 19% 30.27 in 10.0 mi North 8.1 mph 16.1 mph N/A   Scattered Clouds
3:05 PM 78.3 °F - 29.7 °F 17% 30.26 in 10.0 mi North 11.5 mph 17.3 mph N/A   Clear
3:25 PM 78.1 °F - 29.5 °F 17% 30.26 in 10.0 mi NNE 15.0 mph 20.7 mph N/A   Clear
3:45 PM 78.1 °F - 29.5 °F 17% 30.26 in 10.0 mi North 17.3 mph - N/A   Clear
4:05 PM 78.1 °F - 29.3 °F 17% 30.25 in 10.0 mi NE 11.5 mph 23.0 mph N/A   Clear
4:25 PM 78.3 °F - 28.8 °F 16% 30.25 in 10.0 mi NNE 16.1 mph 21.9 mph N/A   Clear
4:45 PM 78.4 °F - 29.3 °F 17% 30.25 in 10.0 mi NNE 12.7 mph 19.6 mph N/A   Clear
5:05 PM 78.1 °F - 28.9 °F 17% 30.24 in 10.0 mi NNE 18.4 mph 25.3 mph N/A   Clear
5:25 PM 78.1 °F - 28.9 °F 17% 30.24 in 10.0 mi North 16.1 mph 23.0 mph N/A   Clear
5:45 PM 77.4 °F - 29.5 °F 17% 30.25 in 10.0 mi NNE 16.1 mph 20.7 mph N/A   Clear
6:05 PM 76.1 °F - 29.1 °F 18% 30.25 in 7.0 mi NNE 17.3 mph 26.5 mph N/A   Clear
6:25 PM 75.2 °F - 29.8 °F 19% 30.26 in 10.0 mi NNE 15.0 mph 18.4 mph N/A   Clear
6:45 PM 73.9 °F - 30.4 °F 20% 30.26 in 10.0 mi NNE 10.4 mph - N/A   Clear
7:05 PM 72.1 °F - 30.9 °F 22% 30.27 in 10.0 mi NNE 9.2 mph - N/A   Clear
7:25 PM 70.5 °F - 31.1 °F 23% 30.27 in 10.0 mi NNE 5.8 mph - N/A   Clear
7:45 PM 68.2 °F - 31.3 °F 25% 30.29 in 10.0 mi NNE 6.9 mph - N/A   Clear
8:05 PM 67.8 °F - 31.1 °F 26% 30.30 in 10.0 mi NNE 6.9 mph - N/A   Clear
8:25 PM 67.3 °F - 31.1 °F 26% 30.31 in 10.0 mi NNE 5.8 mph - N/A   Clear
8:45 PM 65.5 °F - 31.1 °F 28% 30.32 in 10.0 mi North 6.9 mph - N/A   Clear
9:05 PM 64.8 °F - 31.1 °F 28% 30.33 in 10.0 mi NNE 4.6 mph - N/A   Clear
9:25 PM 63.5 °F - 31.3 °F 30% 30.33 in 10.0 mi NNE 6.9 mph - N/A   Clear
9:45 PM 63.5 °F - 31.6 °F 30% 30.34 in 10.0 mi NNE 5.8 mph - N/A   Clear
10:05 PM 62.1 °F - 31.3 °F 31% 30.35 in 10.0 mi NNE 5.8 mph - N/A   Clear
10:25 PM 61.7 °F - 31.3 °F 32% 30.36 in 10.0 mi Calm Calm - N/A   Clear
10:45 PM 56.7 °F - 30.6 °F 37% 30.37 in 10.0 mi North 4.6 mph - N/A   Clear
11:05 PM 56.5 °F - 30.6 °F 37% 30.38 in 10.0 mi North 3.5 mph - N/A   Clear
11:25 PM 56.5 °F - 30.9 °F 38% 30.38 in 10.0 mi North 3.5 mph - N/A   Clear
11:45 PM 54.3 °F - 31.1 °F 41% 30.38 in 10.0 mi North 3.5 mph - N/A   Clear